sat.trackr.live / text

‹ back to catalog

SKYSAT-C5

NORAD 41772 · 2016-058C

PAYLOAD ACTIVE UNKNOWN

§ Identity

Operator
Country
US
Launch date
2016-09-16
Launch site
FRGUI
Launch vehicle
Mass (kg)
RCS (m²)
0.43

Purposes: earth_obs

External: N2YO · Heavens-Above · Gunter

§ Orbital elements

Epoch: 2026-05-25T01:57:25.422336Z

Period
93.87 min
Inclination
97.0490°
Eccentricity
0.0003706
Mean motion
15.34086426 rev/d
Perigee alt
461.1 km
Apogee alt
466.2 km
Semi-major
6,841.8 km
B*
2.1081e-4
RAAN
186.7567°
Arg perigee
46.5945°
Mean anomaly
313.5607°
Rev number
54,020

§ Raw data

SKYSAT-C51 41772U 16058C   26145.08154424  .00006880  00000+0  21081-3 0  99932 41772  97.0490 186.7567 0003706  46.5945 313.5607 15.34086426540206

JSON: /api/v1/satellites/41772 · /tle

For live sub-satellite position, see the globe view (requires WebGL).

§ Visibility from observer

Set your observer location to see the next 7 days of passes ≥ 10°. The values pass through the URL so the page stays shareable.

No JS? Fill the form by hand. The geolocation button needs JavaScript.